Regional Weather Roundup
Issued by NWS

Home | Current Version | Previous Version | Text Only | Print | Product List | Glossary Off
Versions: 1 2 3 4 5 6 7 8 9 10 11 12 13 14 15 16 17 18 19 20 21 22 23 24 25 26 27 28 29 30 31 32 33 34 35 36 37 38 39 40 41 42 43 44 45 46 47 48 49 50

000
ASUS43 KLSX 260757
RWRMO

WEATHER SUMMARY FOR MISSOURI
NATIONAL WEATHER SERVICE SPRINGFIELD MO
300 AM CDT TUE JUL 26 2016

NOTE: "FAIR" INDICATES FEW OR NO CLOUDS BELOW 12,000 FEET WITH NO
       SIGNIFICANT WEATHER AND/OR OBSTRUCTIONS TO VISIBILITY.
       CURRENT SKY AND/OR WEATHER CONDITIONS ARE NOT AVAILABLE FOR
       CHILLICOTHE AND FARMINGTON.

MOZ001>031-035>038-043-044-053-054-260900-
...NORTHERN AND WESTERN MISSOURI...

CITY           SKY/WX    TMP DP  RH WIND       PRES   REMARKS
KANSAS CTY INT CLEAR     71  67  87 NE5       30.05F
LEE`S SUMMIT   CLOUDY    74  69  85 NE3       30.05F
ST JOSEPH      CLEAR     66  64  93 N5        30.05F

$$
MOZ066>068-077>081-088>096-101>105-260900-
...SOUTHWEST MISSOURI...

CITY           SKY/WX    TMP DP  RH WIND       PRES   REMARKS
SPRINGFIELD    CLEAR     74  71  91 E3        30.03F
JOPLIN         CLOUDY    74  73  97 CALM      30.02F

$$
MOZ032>034-039>042-045>050-055>058-069>072-260900-
...CENTRAL MISSOURI...

CITY           SKY/WX    TMP DP  RH WIND       PRES   REMARKS
COLUMBIA       NOT AVBL
JEFFERSON CITY PTCLDY    70  69  97 CALM      30.03S
ROLLA          CLOUDY    72  70  93 CALM      30.03S
SEDALIA        CLOUDY    72  70  93 CALM      30.05F

$$
MOZ051-052-059>065-260900-
...EAST CENTRAL MISSOURI...

CITY           SKY/WX    TMP DP  RH WIND       PRES   REMARKS
ST LOUIS INTL  CLOUDY    79  73  82 NE7       30.01S

$$
MOZ072>076-082>087-097>100-106>115-260900-
...SOUTH CENTRAL AND SOUTHEAST MISSOURI...

CITY           SKY/WX    TMP DP  RH WIND       PRES   REMARKS
CAPE GIRARDEAU FOG       75  74  96 CALM      29.98S VSB 3/4
POPLAR BLUFF   PTCLDY    75  74  96 CALM      29.98S FOG
WEST PLAINS    CLOUDY    76  72  87 CALM      30.04F

$$



USA.gov is the U.S. government's official web portal to all federal, state and local government web resources and services.